CRYOSAT 2

Last updated on Fri Dec 19 2025 00:03:36 GMT+0000 (Coordinated Universal Time)

1 36508U 10013A 25352.64896196 .00000107 00000+0 25764-4 0 9998 2 36508 92.0257 233.6004 0002435 94.9708 265.1778 14.51904626831880
UTC large
Height (km)
Speed (km/s)
/
Latitude / Longitude
Inclination (degrees)
Orbital Period (minutes)
Azimuth
Elevation
Range (km)
Doppler Factor

Next 0 passes for location: London (51.5072 / 0.1276)

Sorry there are no passes over London.